Weather History for Wallops Island, VA

Change the Weather History Date:

Monday, December 17, 2012

  Actual Average Record
Temperature  
Mean Temperature 54 °F 40 °F  
Max Temperature 57 °F 48 °F 61 °F (2000)
Min Temperature 51 °F 32 °F 16 °F (2010)
Degree Days  
Heating Degree Days 11    
Month to date heating degree days 256  
Since 1 July heating degree days 944  
Cooling Degree Days 0    
Month to date cooling degree days 0  
Year to date cooling degree days 1616  
Growing Degree Days 4 (Base 50)    
Moisture  
Dew Point 50 °F    
Average Humidity 87    
Maximum Humidity 93    
Minimum Humidity 80    
Precipitation  
Precipitation 0.07 in 0.11 in 0.39 in (2003)
Month to date precipitation 0.51 1.93  
Year to date precipitation 45.69 39.34  
Sea Level Pressure  
Sea Level Pressure 29.78 in    
Wind  
Wind Speed 6 mph (SSE)    
Max Wind Speed 16 mph    
Max Gust Speed 23 mph    
Visibility 2 miles    
Events Fog , Rain    
T = Trace of Precipitation, MM = Missing Value Source: NWS Daily Summary

Daily Weather History Graph

Daily Weather History Graph

Search for Another Location

Airport:

Trip Planner

Search our weather history database for the weather conditions in past years. The results will help you decide how hot, cold, wet, or windy it might be!

Date:

Astronomy

Dec. 17, 2012 Rise Set
Actual Time 7:12 AM EST 4:44 PM EST
Civil Twilight 6:42 AM EST 5:13 PM EST
Nautical Twilight 6:09 AM EST 5:46 PM EST
Astronomical Twilight 5:37 AM EST 6:19 PM EST
Moon 10:23 AM EST (12/17) 9:58 PM EST (12/17)
Length of Visible Light 10h 31m
Length of Day
9h 32m
Waxing Crescent, 24% of the Moon is Illuminated
Dec 17
Waxing Crescent
Dec 20
First Quarter
Dec 28
Full
Jan 4
Last Quarter
Jan 11
New

Hourly Weather History & Observations

Time (EST) Temp. Dew Point Humidity Pressure Visibility Wind Dir Wind Speed Gust Speed Precip Events Conditions
12:04 AM 53.1 °F 48.0 °F 83% 29.88 in 4.0 mi SSW 11.5 mph - 0.01 in Rain Light Rain
12:38 AM 53.1 °F 48.0 °F 83% 29.87 in 4.0 mi SSW 6.9 mph - 0.02 in Rain Light Rain
12:54 AM 52.0 °F 48.0 °F 86% 29.86 in 3.0 mi SSW 6.9 mph - 0.03 in Rain Light Rain
1:54 AM 53.1 °F 48.9 °F 86% 29.87 in 7.0 mi SW 8.1 mph - 0.02 in Rain Light Rain
2:54 AM 53.1 °F 48.9 °F 86% 29.86 in 6.0 mi SSW 3.5 mph - 0.03 in Rain Light Rain
3:46 AM 53.1 °F 48.0 °F 83% 29.85 in 2.0 mi SW 5.8 mph - 0.00 in Rain Light Rain
3:54 AM 53.1 °F 48.0 °F 83% 29.84 in 1.2 mi SSW 6.9 mph - 0.00 in Rain Light Rain
4:31 AM 53.1 °F 48.0 °F 83% 29.82 in 1.0 mi SSW 9.2 mph - 0.00 in   Haze
4:39 AM 52.0 °F 48.0 °F 86% 29.81 in 0.5 mi SSW 8.1 mph - 0.00 in Fog Fog
4:54 AM 52.0 °F 48.0 °F 86% 29.80 in 0.8 mi SSW 9.2 mph - 0.00 in   Mist
5:02 AM 52.0 °F 48.0 °F 86% 29.80 in 0.5 mi SSW 8.1 mph - N/A Fog Fog
5:54 AM 53.1 °F 48.9 °F 86% 29.81 in 0.5 mi NNW 4.6 mph - N/A Fog Fog
6:16 AM 54.0 °F 48.9 °F 83% 29.82 in 0.8 mi NNW 4.6 mph - N/A   Haze
6:28 AM 54.0 °F 48.9 °F 83% 29.82 in 1.0 mi NNW 4.6 mph - N/A   Haze
6:36 AM 54.0 °F 50.0 °F 86% 29.83 in 1.8 mi Calm Calm - N/A   Overcast
6:40 AM 54.0 °F 50.0 °F 86% 29.83 in 2.5 mi SW 3.5 mph - N/A   Overcast
6:50 AM 53.6 °F 50.0 °F 88% 29.83 in 3.0 mi South 4.6 mph - N/A   Overcast
6:54 AM 53.6 °F 48.2 °F 82% 29.83 in 3.0 mi South 4.6 mph - N/A   Overcast
6:58 AM 53.1 °F 48.9 °F 86% 29.83 in 2.0 mi South 5.8 mph - N/A   Overcast
7:05 AM 53.1 °F 48.9 °F 86% 29.83 in 1.0 mi South 4.6 mph - N/A   Overcast
7:13 AM 52.0 °F 48.0 °F 86% 29.82 in 0.5 mi South 3.5 mph - N/A Fog Fog
7:54 AM 53.1 °F 48.9 °F 86% 29.81 in 0.2 mi SSW 3.5 mph - N/A Fog Fog
8:05 AM 53.1 °F 48.9 °F 86% 29.82 in 1.0 mi SSW 4.6 mph - N/A   Overcast
8:08 AM 53.1 °F 48.9 °F 86% 29.82 in 2.0 mi Calm Calm - N/A   Overcast
8:16 AM 53.1 °F 48.9 °F 86% 29.82 in 3.0 mi NNW 3.5 mph - N/A   Overcast
8:37 AM 53.6 °F 48.2 °F 82% 29.82 in 2.5 mi South 4.6 mph - N/A   Overcast
8:51 AM 53.6 °F 48.2 °F 82% 29.82 in 1.8 mi ENE 3.5 mph - N/A   Haze
8:54 AM 53.1 °F 48.9 °F 86% 29.81 in 1.5 mi East 3.5 mph - N/A   Overcast
9:26 AM 53.1 °F 50.0 °F 89% 29.83 in 2.0 mi Calm Calm - N/A   Overcast
9:34 AM 53.1 °F 48.9 °F 86% 29.84 in 2.5 mi Calm Calm - N/A   Overcast
9:54 AM 54.0 °F 50.0 °F 86% 29.85 in 3.0 mi Calm Calm - N/A   Overcast
10:29 AM 54.0 °F 50.0 °F 86% 29.85 in 2.5 mi Calm Calm - N/A   Overcast
10:40 AM 55.0 °F 50.0 °F 83% 29.85 in 1.8 mi Calm Calm - N/A   Haze
10:54 AM 55.0 °F 50.0 °F 83% 29.83 in 1.5 mi Calm Calm - N/A   Haze
11:21 AM 55.9 °F 51.1 °F 84% 29.84 in 2.0 mi Calm Calm - N/A   Haze
11:47 AM 57.0 °F 52.0 °F 83% 29.83 in 2.5 mi Calm Calm - N/A   Haze
11:54 AM 57.0 °F 52.0 °F 83% 29.81 in 2.5 mi NE 3.5 mph - N/A   Haze
12:01 PM 57.0 °F 52.0 °F 83% 29.81 in 1.8 mi NE 3.5 mph - N/A   Haze
12:17 PM 57.0 °F 52.0 °F 83% 29.80 in 2.5 mi NE 3.5 mph - N/A   Haze
12:39 PM 55.9 °F 51.1 °F 84% 29.79 in 2.0 mi East 3.5 mph - N/A   Haze
12:54 PM 55.9 °F 51.1 °F 84% 29.77 in 2.0 mi East 6.9 mph - N/A   Haze
1:13 PM 55.9 °F 51.1 °F 84% 29.78 in 3.0 mi East 3.5 mph - N/A   Haze
1:29 PM 55.9 °F 51.1 °F 84% 29.79 in 4.0 mi Calm Calm - N/A   Haze
1:38 PM 55.0 °F 51.1 °F 86% 29.79 in 4.0 mi Calm Calm - N/A   Overcast
1:46 PM 55.9 °F 51.1 °F 84% 29.78 in 4.0 mi East 4.6 mph - N/A   Haze
1:54 PM 55.0 °F 51.1 °F 86% 29.78 in 3.0 mi East 5.8 mph - N/A   Overcast
2:02 PM 55.0 °F 50.0 °F 83% 29.78 in 2.5 mi East 5.8 mph - N/A   Haze
2:12 PM 55.0 °F 50.0 °F 83% 29.78 in 3.0 mi East 5.8 mph - N/A   Haze
2:19 PM 55.0 °F 50.0 °F 83% 29.77 in 2.0 mi East 6.9 mph - N/A   Haze
2:22 PM 55.0 °F 50.0 °F 83% 29.77 in 1.0 mi East 5.8 mph - N/A   Haze
2:26 PM 54.0 °F 50.0 °F 86% 29.77 in 0.5 mi East 8.1 mph - N/A Fog Fog
2:54 PM 53.1 °F 48.0 °F 83% 29.75 in 0.2 mi East 8.1 mph - N/A   Haze
3:54 PM 53.1 °F 48.9 °F 86% 29.74 in 0.2 mi East 4.6 mph - N/A Fog Fog
4:54 PM 52.0 °F 48.0 °F 86% 29.76 in 0.5 mi ENE 8.1 mph - N/A Fog Fog
7:22 PM 53.1 °F 48.9 °F 86% 29.72 in 0.5 mi South 4.6 mph - N/A Fog Fog
7:54 PM 53.1 °F 48.9 °F 86% 29.68 in 0.2 mi South 9.2 mph - N/A Fog Fog
8:17 PM 54.0 °F 50.0 °F 86% 29.67 in 1.0 mi Variable 6.9 mph 23.0 mph N/A   Mist
8:20 PM 54.0 °F 50.0 °F 86% 29.67 in 2.0 mi Variable 4.6 mph 19.6 mph N/A   Overcast
8:22 PM 54.0 °F 50.0 °F 86% 29.67 in 3.0 mi Variable 4.6 mph - N/A   Overcast
8:54 PM 54.0 °F 51.1 °F 90% 29.68 in 9.0 mi SSW 8.1 mph - N/A   Overcast
9:54 PM 54.0 °F 50.0 °F 86% 29.64 in 2.0 mi SSE 4.6 mph - N/A   Overcast
10:03 PM 54.0 °F 50.0 °F 86% 29.64 in 1.5 mi SE 6.9 mph - N/A   Overcast
10:12 PM 54.0 °F 50.0 °F 86% 29.64 in 2.5 mi South 10.4 mph - N/A   Overcast
10:20 PM 54.0 °F 50.0 °F 86% 29.64 in 6.0 mi South 9.2 mph - N/A   Overcast
10:54 PM 54.0 °F 50.0 °F 86% 29.62 in 8.0 mi South 6.9 mph - N/A   Overcast
11:36 PM 54.0 °F 50.0 °F 86% 29.63 in 9.0 mi SSW 11.5 mph - N/A   Overcast
11:54 PM 55.0 °F 50.0 °F 83% 29.60 in 10.0 mi SW 10.4 mph - N/A   Overcast